Flag for Germany Weather past 2 weeks in Ansbach, Bavaria, Germany

Now
57 °F

Clear.


Feels Like: 57 °F
Forecast: 60 / 81 °F
Wind: 2 mph from Southeast

Location: Ansbach / Katterbach

Current Time: Aug 1, 2014 at 6:51:39 AM

Latest Report: Aug 1, 2014 at 5:58 AM


Visibility: N/A

Pressure: 29.97 "Hg

Humidity: 88%

Dew point: 54 °F

Location of AnsbachLocation

Historic Weather in Ansbach — Graph

°F

Ansbach temperature yesterday

Maximum temperature yesterday: 74 °F (at 3:58 PM)
Minimum temperature yesterday: 61 °F (at 5:58 AM)
Average temperature yesterday: 67 °F

Past Weeks' High & Low Weather Summary

 TemperatureHumidityPressure
High87 °F (Jul 19, 5:58 PM)100% (Jul 21, 5:58 AM)30.21 "Hg (Jul 21, 5:58 AM)
Low55 °F (Jul 25, 5:58 AM)29% (Jul 19, 4:58 PM)29.74 "Hg (Jul 29, 4:58 PM)
Average69 °F71%29.93 "Hg
* Reported Jul 17 5:58 AM — Aug 1 5:58 AM, Ansbach, Weather by CustomWeather, © 2014

Note: Actual official high and low records may vary slightly from our data, if they occured in-between our weather recording intervals... More about our weather records

Advertising

Ansbach weather history for previous 24 hours

 ConditionsComfort  
Time TempWeatherWind HumidityBarometerVisibility
5:58 AM
Aug 1
57 °FClear.2 mph88%29.97 "HgN/A
4:58 AM57 °FClear.No wind90%29.97 "HgN/A
3:58 AM57 °FClear.3 mph94%29.97 "HgN/A
2:58 AM59 °FClear.3 mph87%29.98 "HgN/A
1:58 AM59 °FClear.3 mph88%29.98 "HgN/A
12:58 AM61 °FClear.No wind83%30.00 "HgN/A
11:58 PM
Jul 31
63 °FClear.3 mph72%29.99 "HgN/A
10:58 PM64 °FClear.No wind72%29.99 "HgN/A
9:58 PM67 °FSunny.3 mph63%29.97 "HgN/A
8:58 PM70 °FSunny.3 mph57%29.97 "HgN/A
7:58 PM72 °FScattered clouds.3 mph54%29.98 "HgN/A
6:58 PM72 °FOvercast.5 mph50%29.98 "HgN/A
5:58 PM72 °FMostly cloudy.5 mph50%29.98 "HgN/A
4:58 PM73 °FPartly sunny.5 mph50%29.99 "HgN/A
3:58 PM74 °FScattered clouds.5 mph51%29.99 "HgN/A
2:58 PM73 °FPartly sunny.6 mph52%30.00 "HgN/A
1:58 PM72 °FPartly sunny.1 mph57%30.01 "HgN/A
12:58 PM69 °FPartly sunny.6 mph63%30.02 "HgN/A
11:58 AM68 °FOvercast.7 mph66%30.03 "HgN/A
10:58 AM68 °FMostly cloudy.5 mph65%30.02 "HgN/A
9:58 AM67 °FPartly sunny.7 mph68%30.02 "HgN/A
8:58 AM66 °FPartly sunny.8 mph78%30.02 "HgN/A
7:58 AM63 °FOvercast.6 mph88%30.00 "HgN/A
6:58 AM61 °FMore clouds than sun.5 mph90%29.99 "HgN/A
Weather by CustomWeather, © 2014

See weather overviewHow to use our weather pages